{"data":{"norad_id":58248,"epoch":"2026-05-25T04:30:18.391104Z","epoch_age_seconds":52023,"freshness":"FRESH","line1":"1 58248U 23171U   26145.18771286  .00002839  00000+0  11268-3 0  9991","line2":"2 58248  43.0037 213.2262 0002073 269.4116  90.6498 15.27576353141438","mean_motion":15.27576353,"eccentricity":0.0002073,"inclination_deg":43.0037,"raan_deg":213.2262,"arg_perigee_deg":269.4116,"mean_anomaly_deg":90.6498,"bstar":0.00011268,"rev_number":14143,"period_min":94.26697377005,"perigee_km":481.63769034986,"apogee_km":484.4823426329,"semimajor_km":6861.1970164914,"source":"CELESTRAK","updated_at":"2026-05-25T13:38:18.583008Z"}}